Regional Weather Roundup
Issued by NWS

Home | Current Version | Previous Version | Text Only | Print | Product List | Glossary On
Versions: 1 2 3 4 5 6 7 8 9 10 11 12 13 14 15 16 17 18 19 20 21 22 23 24 25 26 27 28 29 30 31 32 33 34 35 36 37 38 39 40 41 42 43 44 45 46 47 48 49 50
000
ASUS45 KTFX 301619
RWRMT
MONTANA REGIONAL WEATHER ROUNDUP
NATIONAL WEATHER SERVICE GREAT FALLS MT
1000 AM MDT SUN AUG 30 2015

NOTE: "FAIR" INDICATES FEW OR NO CLOUDS BELOW 12000 FEET WITH NO
SIGNIFICANT WEATHER AND/OR OBSTRUCTIONS TO VISIBILITY.

MTZ001>007-043-301700-
WEST OF THE DIVIDE

CITY           SKY/WX    TMP DP  RH WIND       PRES   REMARKS
KALISPELL      CLOUDY    62  51  67 S12       29.87S
MISSOULA       CLOUDY    61  51  70 W3        29.91S
BUTTE          SUNNY     63  47  55 N7        29.98F
MULLAN PASS    MOSUNNY   50  39  66 VRB6      29.96F
DEER LODGE       N/A     63  48  59 NW8       29.98S
EUREKA           N/A     63  45  51 S7        29.83F
HAMILTON         N/A     61  52  72 NW2       29.92S
LIBBY            N/A     61  46  59 NW6       29.83F
PLAINS           N/A     62  51  67 NE1       29.89
RONAN            N/A     64  53  67 CALM      29.95S
THOMPSON FALLS   N/A     57  49  75 W2        29.93S
$$

MTZ008-052>055-301700-
SOUTHWEST MONTANA

CITY           SKY/WX    TMP DP  RH WIND       PRES   REMARKS
BOZEMAN        MOSUNNY   64  52  64 SE7       29.94S
DILLON         SUNNY     67  45  45 W9        29.97S
W YELLOWSTONE  MOSUNNY   61  50  67 SW14      30.10S
THREE FORKS      N/A     66  66 100 NE2       29.93S
TWIN BRIDGES     N/A     66  46  48 SE9       29.96S
$$

MTZ009-010-012-014-046-048-049-054-301700-
EAST SLOPES AND CENTRAL MONTANA

CITY           SKY/WX    TMP DP  RH WIND       PRES   REMARKS
CUT BANK       MOSUNNY   67  38  34 SW26G32   29.81F
GREAT FALLS    CLOUDY    66  52  60 SW9       29.83S
MALMSTROM AFB  CLOUDY    69  48  46 SW18G24   29.83S
HELENA         MOSUNNY   68  52  56 NW8       29.87F HAZE
CONRAD           N/A     68  49  50 SW9       29.86F
$$

MTZ011-013-016-021-045-047-050-051-301700-
NORTH CENTRAL MONTANA

CITY           SKY/WX    TMP DP  RH WIND       PRES   REMARKS
HAVRE          CLOUDY    66  52  60 MISG      29.78F
LEWISTOWN      LGT RAIN  63  52  67 W10       29.93F
N BAR RANCH    CLOUDY    57  52  82 NW12      29.98F
CHINOOK          N/A     64  54  68 SW3       29.80S
FORT BENTON      N/A     64  54  68 CALM      29.81R
$$

MTZ017>020-022>027-061-062-301700-
NORTHEAST MONTANA

CITY           SKY/WX    TMP DP  RH WIND       PRES   REMARKS
GLASGOW        PTSUNNY   73  50  44 NW20G26   29.78R
JORDAN           N/A     74  50  42 NW24G33   29.83R
SIDNEY         MOSUNNY   81  50  34 N12G30    29.62F
WOLF POINT     CLOUDY    82  47  29 N21       29.67F HAZE
MALTA            N/A     64  54  70 SW6       29.80R
PLENTYWOOD       N/A     77  43  29 NW18      29.69R
POPLAR           N/A     79  50  36 N17G24    29.66F
SCOBEY           N/A     75  49  39 N9        29.71
$$

MTZ028>42-056>058-301700-
SOUTHCENTRAL AND SOUTHEAST MONTANA

CITY           SKY/WX    TMP DP  RH WIND       PRES   REMARKS
BAKER          PTSUNNY   82  45  27 W12       29.74F
BILLINGS       CLOUDY    73  48  41 NW35G47   29.91R
LIVINGSTON     MOSUNNY   67  51  56 SE8       29.93F
MILES CITY     LGT RAIN  74  50  42 SW16      29.77R
EKALAKA          N/A     81  44  26 W10       29.80
FORSYTH          N/A     73  50  43 W13       29.80R
LAUREL           N/A     71  48  43 NW24      29.92R
ROUNDUP          N/A     64  52  65 W7        29.86R
$$

REGIONAL REPORTS...DAKOTAS

CITY           SKY/WX    TMP DP  RH WIND       PRES   REMARKS
WILLISTON      PTSUNNY   80  52  37 S8        29.66
MINOT          MOSUNNY   83  57  41 S9        29.64
DICKINSON      CLOUDY    83  46  27 S15       29.71
BEACH            N/A     82  43  24 NW7       29.70F
CROSBY           N/A     81  54  39 SW9G24    29.66R
BISMARCK       MOSUNNY   81  60  48 S12       29.72
GRAND FORKS    MOSUNNY   73  65  75 S14       29.76
FARGO          SUNNY     74  64  71 S14G24    29.82S
BUFFALO SD       N/A     82  56  40 VRB5      29.71F
RAPID CITY     MOSUNNY   80  54  40 SE13      29.82F
$$

REGIONAL REPORTS...WYOMING/IDAHO/WASHINGTON

CITY           SKY/WX    TMP DP  RH WIND       PRES   REMARKS
GILLETTE       PTSUNNY   84  43  23 S10       29.90S
SHERIDAN       CLOUDY    75  48  38 NE3       29.85S
BUFFALO WY     CLOUDY    82  40  22 SE12      29.94S
CODY           MOSUNNY   73  48  40 N8        29.97R
YELLOWSTONE LA   N/A     59  47  64 VRB5      30.20R
IDAHO FALLS    PTSUNNY   70  48  45 SW18      30.04R
SALMON         MOSUNNY   73  43  33 S20G25    29.91S
BOISE          SUNNY     66  44  45 CALM      30.00R
SPOKANE        LGT RAIN  55  52  89 S14       29.87S
$$

REGIONAL REPORTS...ALBERTA

CITY           SKY/WX    TMP DP  RH WIND       PRES   REMARKS
EDMONTON       SUNNY     68  48  49 SE2       29.49S
CALGARY        MOSUNNY   61  39  44 SW9       29.62F
LETHBRIDGE     MOSUNNY   68  37  32 SW20G28   29.72F
MEDICINE HAT   PTSUNNY   66  45  45 S12       29.70F
WATERTON GATE    N/A     63  34  34 SW17G26     N/A
CARDSTON         N/A     64  34  32 W13G22      N/A
MILK RIVER       N/A     66  41  39 S18G25      N/A
$$

REGIONAL REPORTS...SASKATCHEWAN

CITY           SKY/WX    TMP DP  RH WIND       PRES   REMARKS
SWIFT CURRENT  PTSUNNY   68  43  40 W13       29.74R
REGINA         LGT RAIN  64  54  68 NW15G24   29.70R SMOKE
SASKATOON      PTSUNNY   64  50  59 SW10G17   29.63R
CYPRESS HILLS    N/A     61  43  51 SW8         N/A
VAL MARIE        N/A     61  52  72 W9          N/A
ROCKGLEN         N/A     66  46  48 N6          N/A
ASSINIBOIA       N/A     66  50  55 W2          N/A
$$



USA.gov is the U.S. government's official web portal to all federal, state and local government web resources and services.